Home   Weather   Salisbury   Past weeks

Flag for United Kingdom Past Weather in Salisbury, England, United Kingdom — Yesterday and Last 2 Weeks

Now
30 °F

Chilly.


Feels Like: 21 °F
Forecast: 26 / 38 °F
Wind: 12 mph from East

Location: Boscombe Down

Current Time: Jan 21, 2017 at 12:10:29 am

Latest Report: Jan 20, 2017 at 10:50 pm


Visibility: N/A

Pressure: 30.39 "Hg

Humidity: 86%

Dew Point: 27 °F

Location of SalisburyLocation

Past Weather in Salisbury — Graph

°F

Salisbury Temperature Yesterday

Maximum temperature yesterday: 41 °F (at 12:50 pm)
Minimum temperature yesterday: 30 °F (at 8:50 am)
Average temperature yesterday: 35 °F

High & Low Weather Summary for the Past Weeks

 TemperatureHumidityPressure
High50 °F (Jan 7, 11:50 am)100% (Jan 6, 12:50 am)30.66 "Hg (Jan 6, 12:50 am)
Low28 °F (Jan 5, 11:50 pm)36% (Jan 19, 2:50 pm)29.36 "Hg (Jan 12, 3:50 pm)
Average40 °F87%30.25 "Hg
* Reported Jan 5 9:50 pm — Jan 20 9:50 pm, Salisbury, Weather by CustomWeather, © 2017

Note: Actual official high and low records may vary slightly from our data, if they occured in-between our weather recording intervals... More about our weather records

Advertising

Salisbury Weather History for the Previous 24 Hours

Scroll right to see more
 ConditionsComfort  
Time TempWeatherWind HumidityBarometerVisibility
9:50 pm
Fri, Jan 20
32 °FChilly.12 mph80%30.39 "HgN/A
8:50 pm34 °FChilly.10 mph70%30.39 "HgN/A
7:50 pm36 °FChilly.12 mph65%30.42 "HgN/A
6:50 pm36 °FChilly.10 mph70%30.42 "HgN/A
5:50 pm37 °FChilly.8 mph60%30.42 "HgN/A
4:50 pm39 °FPassing clouds.6 mph61%30.42 "HgN/A
3:50 pm39 °FSunny.5 mph61%30.42 "Hg10 mi
2:50 pm41 °FSunny.12 mph57%30.42 "Hg10 mi
1:50 pm41 °FSunny.14 mph57%30.42 "Hg10 mi
12:50 pm41 °FSunny.12 mph53%30.45 "Hg10 mi
11:50 am39 °FSunny.12 mph61%30.48 "Hg10 mi
10:50 am37 °FSunny.9 mph75%30.51 "Hg10 mi
9:50 am34 °FSunny.7 mph81%30.51 "Hg10 mi
8:50 am30 °FSunny.7 mph86%30.51 "Hg10 mi
7:50 am32 °FClear.6 mph75%30.51 "Hg10 mi
6:50 am32 °FClear.7 mph80%30.51 "Hg10 mi
5:50 am32 °FChilly.5 mph87%30.51 "HgN/A
4:50 am32 °FChilly.5 mph87%30.51 "HgN/A
3:50 am34 °FChilly.6 mph81%30.51 "HgN/A
2:50 am34 °FChilly.6 mph81%30.51 "HgN/A
1:50 am32 °FChilly.3 mph80%30.54 "HgN/A
12:50 am34 °FChilly.2 mph81%30.54 "HgN/A
Weather by CustomWeather, © 2017

See weather overviewHow to use our weather pages